Regional Weather Roundup
Issued by NWS Kansas City/Pleasant Hill, MO

Home | Current Version | Previous Version | Graphics & Text | Print | Product List | Glossary Off
Versions: 1 2 3 4 5 6 7 8 9 10 11 12 13 14 15 16 17 18 19 20 21 22 23 24 25 26 27 28 29 30 31 32 33 34 35 36 37 38 39 40 41 42 43 44 45 46 47 48 49 50

000
ASUS43 KEAX 280111
RWREAX

WEATHER ROUNDUP FOR EASTERN KANSAS AND NORTHWEST MISSOURI
NATIONAL WEATHER SERVICE KANSAS CITY/PLEASANT HILL MO
700 PM CST SAT DEC 27 2014

KSZ040-057-103>105-MOZ028-029-037-043-280200-
...KANSAS CITY METROPOLITAN AREA...

CITY           SKY/WX    TMP DP  RH WIND       PRES   REMARKS
K.C. INTL      CLEAR     26  19  74 NW3       30.25S
K.C. DOWNTOWN  CLEAR     30  20  66 NW6       30.27R WCI  24
LEES SUMMIT    CLEAR     27  19  72 CALM      30.26R
OLATHE - IXD   FAIR      26  19  74 NW6       30.26R WCI  19
OLATHE - OJC   CLEAR     28  19  69 NW5       30.25R WCI  23
LAWRENCE       CLEAR     25  18  74 NW5       30.28R WCI  19

$$

MOZ001>008-011>017-020>025-030>033-038>040-044>046-053-054-280200-
...NORTHERN AND CENTRAL MISSOURI...

CITY           SKY/WX    TMP DP  RH WIND       PRES   REMARKS
ST. JOSEPH     CLEAR     24  18  77 W3        30.28S
MOSBY          FAIR      30  23  74 NW5       30.27S WCI  25
WARRENSBURG    CLEAR     28  23  80 NW5       30.26F WCI  23
WHITEMAN AFB   MOCLDY    28  21  74 N10       30.25R WCI  19
CLINTON        CLOUDY    32  28  86 NW7       30.27S WCI  26
SEDALIA        CLOUDY    32  25  75 NW13      30.25R WCI  22
WARSAW         NOT AVBL
MARSHALL       CLOUDY    32  27  80 NW8       30.26R WCI  25
CHILLICOTHE      N/A     30  21  69 NW6       30.28R WCI  24
MOBERLY        CLOUDY    32  23  69 NW12      30.23R WCI  23
KIRKSVILLE     CLOUDY    29  24  82 NW10      30.23R WCI  20

$$

MOZ041-047>049-056>058-063>065-088>090-097-280200-
...EASTERN AND SOUTHERN MISSOURI...

CITY           SKY/WX    TMP DP  RH WIND       PRES   REMARKS
ST. LOUIS INTL CLOUDY    36  34  93 NW5       30.19F WCI  32
SPIRIT OF STL  CLOUDY    36  34  93 W5        30.20S WCI  32
COLUMBIA       CLOUDY    32  27  81 NW12      30.22S WCI  23
JEFFERSON CITY CLOUDY    34  27  75 NW5       30.25R WCI  30
MEXICO         CLOUDY    34  30  86 NW15      30.22R WCI  24
HANNIBAL       CLOUDY    34  23  64 NW9       30.21S WCI  26
ROLLA          CLOUDY    32  30  92 NW8       30.19S WCI  25
OSAGE BEACH    CLOUDY    34  28  80 N5        30.23R WCI  30
SPRINGFIELD    CLOUDY    31  28  89 NW9       30.23S WCI  23
BRANSON        CLOUDY    32  32 100 NW6       30.22R WCI  26
NEVADA         CLEAR     28  23  80 NW3       30.28S
JOPLIN         CLEAR     29  24  82 CALM      30.27R
WEST PLAINS    CLOUDY    36  32  85 NW8       30.20R WCI  30

$$

IAZ060-094-KSZ022-034>040-054-083-096-NEZ052-066-093-280200-
...KANSAS...SOUTHEAST NEBRASKA AND IOWA...

CITY           SKY/WX    TMP DP  RH WIND       PRES   REMARKS
TOPEKA         CLEAR     28  18  66 W3        30.29R
MANHATTAN      CLEAR     25  18  74 W5        30.28S WCI  19
EMPORIA        CLEAR     25  18  74 NW7       30.26F WCI  17
CHANUTE        CLEAR     29  19  66 NW8       30.27S WCI  21
WICHITA        CLEAR     29  16  58 NW3       30.28R
OMAHA          CLEAR     22  14  71 CALM      30.26S
LINCOLN        CLEAR     20  16  84 CALM      30.26F
FALLS CITY     CLEAR     25  19  78 W7        30.26S WCI  17
LAMONI         CLOUDY    25  20  81 W8        30.23S WCI  16
DES MOINES     PTCLDY    24  18  77 NW7       30.22S WCI  16

$$




USA.gov is the U.S. government's official web portal to all federal, state and local government web resources and services.